Hourly Data Report for October 01, 2017

All times are specified in Local Standard Time (LST). Add 1 hour to adjust for Daylight Saving Time where and when it is observed.

MORDEN CDA CS
MANITOBA

49°11'15.500" N
98°05'02.200" W
297.50 m
5021849
71564
XMD

Download Data

Hourly Data (October 2017)
Hourly Data Report for October 1, 2017
Temp Definition
°C
Dew Point Temp Definition
°C
Rel Hum Definition
%
Wind Dir Definition
10's deg

Wind Spd Definition
km/h
Visibility Definition
km
Stn Press Definition
kPa
Hmdx Definition


Wind Chill Definition


Weather Definition


TIME
00:00 14.8 10.4 75 16 18   97.16     LegendNANA
01:00 14.3 9.8 75 16 17   97.11     LegendNANA
02:00 14.0 9.6 75 16 15   97.06     LegendNANA
03:00 13.6 9.7 77 17 19   96.97     LegendNANA
04:00 13.1 9.8 80 15 18   96.94     LegendNANA
05:00 13.1 9.9 81 16 15   96.89     LegendNANA
06:00 12.4 9.8 84 16 14   96.86     LegendNANA
07:00 11.7 9.6 87 16 13   96.84     LegendNANA
08:00 13.2 10.2 82 17 17   96.83     LegendNANA
09:00 14.5 10.4 76 16 21   96.82     LegendNANA
10:00 15.5 11.2 76 16 22   96.77     LegendNANA
11:00 15.6 11.8 78 16 24   96.77     LegendNANA
12:00 14.5 11.4 82 15 22   96.71     LegendNANA
13:00 14.0 11.6 85 15 23   96.65     LegendNANA
14:00 13.8 11.9 89 16 18   96.59     LegendNANA
15:00 14.0 12.1 89 14 15   96.55     LegendNANA
16:00 14.9 12.1 83 14 15   96.54     LegendNANA
17:00 14.9 12.3 85 16 19   96.56     LegendNANA
18:00 14.7 12.4 86 16 15   96.60     LegendNANA
19:00 14.1 12.6 91 16 13   96.60     LegendNANA
20:00 14.1 12.7 92 18 14   96.69     LegendNANA
21:00 13.9 12.9 93 14 16   96.62     LegendNANA
22:00 14.0 12.8 93 18 13   96.62     LegendNANA
23:00 14.0 12.9 93 17 19   96.78     LegendNANA

Notes on Data Quality.

Legend

  • E = Estimated
  • M = Missing
  • NA = Not Available
  • ‡ = Partner data that is not subject to review by the National Climate Archives
Date modified: